Flag for U.S.A. Weather past 2 weeks in Naples, Florida, U.S.A.

Now
85 °F

Thunderstorms. Scattered clouds.


Feels Like: 97 °F
Forecast: 76 / 88 °F
Wind: 12 mph from Southwest

Location: Naples Municipal

Current Time: Jul 22, 2014 at 11:39:29 AM

Latest Report: Jul 22, 2014 at 10:53 AM


Visibility: 10 mi

Pressure: 30.06 "Hg

Humidity: 80%

Dew point: 78 °F

Location of NaplesLocation

Historic Weather in Naples — Graph

°F

Naples temperature yesterday

Maximum temperature yesterday: 90 °F (at 11:53 AM)
Minimum temperature yesterday: 78 °F (at 4:53 AM)
Average temperature yesterday: 83 °F

Past Weeks' High & Low Weather Summary

 TemperatureHumidityPressure
High92 °F (Jul 19, 2:53 PM)100% (Jul 9, 2:53 AM)30.14 "Hg (Jul 9, 2:53 AM)
Low73 °F (Jul 10, 5:00 PM)56% (Jul 19, 2:53 PM)29.94 "Hg (Jul 16, 3:53 AM)
Average82 °F84%30.05 "Hg
* Reported Jul 7 10:53 AM — Jul 22 10:53 AM, Naples, Weather by CustomWeather, © 2014

Note: Actual official high and low records may vary slightly from our data, if they occured in-between our weather recording intervals... More about our weather records

Advertising

Naples weather history for previous 24 hours

 ConditionsComfort  
Time TempWeatherWind HumidityBarometerVisibility
10:53 AM
Jul 22
85 °FThunderstorms. Scattered clouds.12 mph80%30.06 "Hg10 mi
9:53 AM84 °FSunny.9 mph85%30.05 "Hg10 mi
8:53 AM80 °FSunny.3 mph94%30.04 "Hg10 mi
7:53 AM78 °FSunny.5 mph96%30.03 "Hg10 mi
6:53 AM76 °FClear.6 mph100%30.01 "Hg10 mi
5:53 AM76 °FClear.3 mph100%30.00 "Hg10 mi
4:53 AM76 °FClear.3 mph100%29.99 "Hg10 mi
3:53 AM76 °FClear.3 mph100%29.99 "Hg10 mi
2:53 AM76 °FClear.8 mph97%30.00 "Hg10 mi
1:53 AM77 °FClear.7 mph96%30.02 "Hg10 mi
12:53 AM77 °FClear.5 mph96%30.03 "Hg10 mi
11:53 PM
Jul 21
78 °FClear.5 mph93%30.03 "Hg10 mi
10:53 PM79 °FClear.6 mph90%30.04 "Hg10 mi
9:53 PM80 °FClear.3 mph90%30.05 "Hg10 mi
8:53 PM79 °FCloudy.6 mph94%30.04 "Hg10 mi
7:53 PM80 °FThundershowers. Scattered clouds.6 mph90%30.03 "Hg10 mi
6:53 PM83 °FThunderstorms. Broken clouds.6 mph82%30.00 "Hg10 mi
5:53 PM88 °FPartly sunny.10 mph73%30.00 "Hg10 mi
4:53 PM87 °FPartly sunny.5 mph75%30.00 "Hg10 mi
3:53 PM87 °FThunderstorms. Sunny.7 mph75%30.01 "Hg10 mi
3:00 PM90 °FThundershowers. Scattered clouds.10 mph73%30.01 "Hg10 mi
1:53 PM90 °FSunny.10 mph70%30.02 "Hg10 mi
12:53 PM90 °FScattered clouds.10 mph68%30.03 "Hg10 mi
11:53 AM90 °FScattered clouds.3 mph61%30.04 "Hg10 mi
Weather by CustomWeather, © 2014

See weather overviewHow to use our weather pages